User: anonymous   Login
Location: Unspecified
(0.0000°N, 0.0000°E)
Time: 03:23:42
(UTC+00:00)
Language:

STARLINK-31678 - Orbit

View from above orbital plane
View from above orbital plane
View from above satellite
View from above satellite

Ground track
Ground track

The orbit is defined by the following mean orbital elements,

1 59493U          26145.36981900 +.00000000 +00000-0 +74113-4 0 00007
2 59493  43.0005 274.4144 0001336 289.2117  70.8590 15.27575653    08
Epoch (UTC): 25 May 2026 08:52:32
Eccentricity: 0.0001336
inclination: 43.0005°
perigee height: 482 km
apogee height: 484 km
right ascension of ascending node: 274.4144°
argument of perigee: 289.2117°
revolutions per day: 15.27575653
mean anomaly at epoch: 70.8590°

The dashed part of the orbit path shows where the satellite is in the earth's shadow,  

DLR